This is the latest recevied weather packets stored in our database for station/object KB9ZI. If no packets are shown the sender has not sent any weather packets the latest 10 day(s).
| Time | Temp. | Humidity | Pressure | Rain* | Wind** | Luminosity | Snow |
|---|---|---|---|---|---|---|---|
| 1777829675 | 20.56° C | 45% | 1006.8 hPa | 0 mm | - | - | - |
| 1777829434 | 20° C | 47% | 1006.9 hPa | 0 mm | - | - | - |
| 1777829315 | 20° C | 47% | 1006.8 hPa | 0 mm | - | - | - |
| 1777829191 | 20° C | 47% | 1006.8 hPa | 0 mm | - | - | - |
| 1777829070 | 20° C | 47% | 1006.7 hPa | 0 mm | - | - | - |
| 1777828943 | 20° C | 47% | 1006.8 hPa | 0 mm | - | - | - |
| 1777828863 | 20° C | 44% | 1007 hPa | 0 mm | - | - | - |
| 1777828686 | 20° C | 45% | 1006.8 hPa | 0 mm | - | - | - |
| 1777828627 | 20.56° C | 48% | 1006.8 hPa | 0 mm | - | - | - |
| 1777828446 | 20.56° C | 47% | 1006.9 hPa | 0 mm | - | - | - |
| 1777828327 | 20.56° C | 43% | 1006.9 hPa | 0 mm | - | - | - |
| 1777828240 | 20.56° C | 43% | 1006.9 hPa | 0 mm | - | - | - |
| 1777828214 | 20.56° C | 43% | 1007 hPa | 0 mm | - | - | - |
| 1777827964 | 20.56° C | 43% | 1006.9 hPa | 0 mm | - | - | - |
| 1777827847 | 20.56° C | 43% | 1006.9 hPa | 0 mm | - | - | - |
| 1777827727 | 20° C | 45% | 1006.9 hPa | 0 mm | - | - | - |
| 1777827672 | 20° C | 45% | 1007 hPa | 0 mm | - | - | - |
| 1777827633 | 20° C | 45% | 1006.9 hPa | 0 mm | - | - | - |
| 1777827365 | 20° C | 45% | 1006.9 hPa | 0 mm | - | - | - |
| 1777827226 | 20° C | 47% | 1006.9 hPa | 0 mm | - | - | - |
| 1777827095 | 20° C | 48% | 1006.9 hPa | 0 mm | - | - | - |
| 1777827030 | 20° C | 44% | 1006.9 hPa | 0 mm | - | - | - |
| 1777826852 | 20° C | 44% | 1007 hPa | 0 mm | - | - | - |
| 1777826705 | 20° C | 46% | 1006.9 hPa | 0 mm | - | - | - |
| 1777826588 | 20° C | 43% | 1007 hPa | 0 mm | - | - | - |
* Rain latest hour (hover to see other rain measurements)
** Current wind speed in m/s (hover to see current wind gust speed)